Location: Duac?
(36.9744°N, 30.6500°E)
Time: 02:09:52
(UTC+00:00)

DELTA 2 R/B (1) - Pass Details

Date: 05 August 2024
Orbit: 788 x 801 km, 39.6° (Epoch: 18 September)

Event Time Altitude Azimuth Distance (km) Brightness Sun altitude
Rises 17:24:53 0° 276° (W) 3,295 8.4 -5.4°
Reaches altitude 10° 17:27:23 10° 279° (W) 2,366 7.6 -5.8°
Maximum altitude 17:32:57 67° 2° (N) 863 3.9 -6.8°
Drops below altitude 10° 17:38:31 10° 86° (E) 2,369 5.5 -7.8°
Enters shadow 17:39:38 - 87° (E) 2,776 5.9 -8.0°
